This is the latest recevied weather packets stored in our database for station/object K4AMF. If no packets are shown the sender has not sent any weather packets the latest 10 day(s).
| Time | Temp. | Humidity | Pressure | Rain* | Wind** | Luminosity | Snow |
|---|---|---|---|---|---|---|---|
| 1778001784 | 26.11° C | 51% | 1017.8 hPa | 0 mm | - | 217 W/m² | - |
| 1778001479 | 26.67° C | 48% | 1017.9 hPa | 0 mm | - | 206 W/m² | - |
| 1778001176 | 27.22° C | 51% | 1017.9 hPa | 0 mm | - | 200 W/m² | - |
| 1778000872 | 26.67° C | 46% | 1018 hPa | 0 mm | - | 223 W/m² | - |
| 1778000569 | 26.11° C | 47% | 1018.1 hPa | 0 mm | - | 900 W/m² | - |
| 1777999961 | 26.67° C | 50% | 1018.5 hPa | 0 mm | - | 244 W/m² | - |
| 1777999656 | 26.67° C | 54% | 1018.3 hPa | 0 mm | - | 203 W/m² | - |
| 1777999354 | 26.67° C | 53% | 1018.5 hPa | 0 mm | - | 822 W/m² | - |
| 1777999052 | 26.67° C | 48% | 1018.3 hPa | 0 mm | - | 671 W/m² | - |
| 1777998750 | 26.11° C | 52% | 1018.3 hPa | 0 mm | - | 610 W/m² | - |
| 1777998447 | 26.11° C | 56% | 1018.3 hPa | 0 mm | - | 483 W/m² | - |
| 1777998144 | 25.56° C | 56% | 1018.2 hPa | 0 mm | - | 730 W/m² | - |
| 1777997841 | 25.56° C | 57% | 1018.6 hPa | 0 mm | - | 569 W/m² | - |
| 1777997539 | 26.11° C | 59% | 1018.3 hPa | 0 mm | - | 482 W/m² | - |
| 1777997236 | 26.11° C | 58% | 1018.3 hPa | 0 mm | - | 817 W/m² | - |
| 1777996933 | 26.11° C | 60% | 1018.4 hPa | 0 mm | - | 769 W/m² | - |
| 1777996630 | 25.56° C | 61% | 1018.1 hPa | 0 mm | - | 764 W/m² | - |
| 1777996326 | 25.56° C | 60% | 1018.4 hPa | 0 mm | - | 741 W/m² | - |
| 1777996022 | 25° C | 61% | 1018.5 hPa | 0 mm | - | 741 W/m² | - |
| 1777995718 | 25° C | 61% | 1018.5 hPa | 0 mm | - | 727 W/m² | - |
| 1777995415 | 25° C | 63% | 1018.6 hPa | 0 mm | - | 737 W/m² | - |
| 1777995112 | 25° C | 61% | 1018.6 hPa | 0 mm | - | 738 W/m² | - |
| 1777994809 | 25.56° C | 61% | 1018.5 hPa | 0 mm | - | 747 W/m² | - |
| 1777994505 | 25° C | 63% | 1018.6 hPa | 0 mm | - | 756 W/m² | - |
| 1777994200 | 25.56° C | 63% | 1018.4 hPa | 0 mm | - | 786 W/m² | - |
* Rain latest hour (hover to see other rain measurements)
** Current wind speed in m/s (hover to see current wind gust speed)